When you browse on this site, cookies collect data to enhance your experience and personalize the content and advertising you see.
Visit our Privacy Policy to learn more. By continuing to use the site, you agree to this use of cookies and data.
  • In United Kingdom
  • List of Countries
  • For 7 days
  • Water Temperature
  • Weather Map
  • Weather Widgets
  • user-avatar
    Login

    Hourly Weather Khashuris

    Today, 28 January, Tuesday

    Time Temperature Precipitation Wind Pressure Humidity
    00:00 -4°C° 0 mm 2 mps 679 mmHg 61%
    01:00 -4°C° 0 mm 2 mps 679 mmHg 61%
    02:00 -4°C° 0 mm 2 mps 678 mmHg 61%
    03:00 -3°C° 0 mm 2 mps 678 mmHg 61%
    04:00 -3°C° 0 mm 2 mps 678 mmHg 61%
    05:00 -3°C° 0 mm 2 mps 677 mmHg 62%
    06:00 -3°C° 0 mm 2 mps 677 mmHg 63%
    07:00 -2°C° 0 mm 2 mps 677 mmHg 63%
    08:00 -2°C° 0 mm 2 mps 678 mmHg 64%
    09:00 -1°C° 0 mm 2 mps 678 mmHg 65%
    10:00 +1°C° 0 mm 2 mps 678 mmHg 65%
    11:00 +2°C° 0 mm 2 mps 677 mmHg 66%
    12:00 +3°C° 0 mm 2 mps 677 mmHg 67%
    13:00 +3°C° 0 mm 2 mps 677 mmHg 69%
    14:00 +4°C° 0 mm 2 mps 676 mmHg 70%
    15:00 +5°C° 0 mm 1 mps 676 mmHg 72%
    16:00 +4°C° 0 mm 1 mps 676 mmHg 70%
    17:00 +2°C° 0 mm 2 mps 676 mmHg 69%
    18:00 -1°C° 0 mm 2 mps 675 mmHg 67%
    19:00 -1°C° 0 mm 2 mps 675 mmHg 65%
    20:00 -1°C° 0 mm 2 mps 675 mmHg 63%
    21:00 -1°C° 0 mm 2 mps 675 mmHg 62%
    22:00 -1°C° 0 mm 2 mps 675 mmHg 62%
    23:00 -1°C° 0 mm 2 mps 675 mmHg 63%

    Tomorrow, 29 January, Wednesday

    Time Temperature Precipitation Wind Pressure Humidity
    00:00 -1°C° 0 mm 2 mps 675 mmHg 63%
    01:00 -1°C° 0 mm 2 mps 675 mmHg 65%
    02:00 +1°C° 0 mm 1 mps 675 mmHg 66%
    03:00 +1°C° 0 mm 1 mps 675 mmHg 67%
    04:00 +1°C° 0 mm 1 mps 675 mmHg 67%
    05:00 +1°C° 0 mm 1 mps 674 mmHg 68%
    06:00 +1°C° 0 mm 1 mps 674 mmHg 68%
    07:00 +2°C° 0 mm 1 mps 675 mmHg 68%
    08:00 +2°C° 0 mm 1 mps 675 mmHg 68%
    09:00 +3°C° 0 mm 1 mps 675 mmHg 68%
    10:00 +4°C° 0 mm 1 mps 675 mmHg 67%
    11:00 +5°C° 0 mm 1 mps 675 mmHg 66%
    12:00 +6°C° 0 mm 1 mps 675 mmHg 65%
    13:00 +6°C° 0 mm 1 mps 675 mmHg 67%
    14:00 +6°C° 0 mm 1 mps 675 mmHg 69%
    15:00 +6°C° 0 mm 1 mps 674 mmHg 70%
    16:00 +5°C° 0 mm 1 mps 674 mmHg 74%
    17:00 +3°C° 0 mm 1 mps 674 mmHg 77%
    18:00 +2°C° 0 mm 1 mps 674 mmHg 80%
    19:00 +1°C° 0 mm 2 mps 675 mmHg 78%
    20:00 -1°C° 0 mm 2 mps 675 mmHg 75%
    21:00 -1°C° 0 mm 2 mps 675 mmHg 73%
    22:00 -1°C° 0 mm 2 mps 675 mmHg 73%
    23:00 -1°C° 0 mm 2 mps 675 mmHg 72%

    Day after tomorrow, 30 January, Thursday

    Time Temperature Precipitation Wind Pressure Humidity
    00:00 -2°C° 0 mm 2 mps 675 mmHg 72%
    01:00 -2°C° 0 mm 2 mps 675 mmHg 71%
    02:00 -2°C° 0 mm 2 mps 675 mmHg 71%
    03:00 -2°C° 0 mm 2 mps 675 mmHg 71%
    04:00 -2°C° 0 mm 2 mps 675 mmHg 71%
    05:00 -2°C° 0 mm 2 mps 675 mmHg 71%
    06:00 -2°C° 0 mm 2 mps 675 mmHg 71%
    07:00 -1°C° 0 mm 2 mps 675 mmHg 70%
    08:00 -1°C° 0 mm 2 mps 676 mmHg 69%
    09:00 +1°C° 0 mm 2 mps 676 mmHg 68%
    10:00 +3°C° 0 mm 1 mps 675 mmHg 67%
    11:00 +4°C° 0 mm 1 mps 675 mmHg 65%
    12:00 +5°C° 0 mm 1 mps 675 mmHg 64%
    13:00 +6°C° 0 mm 1 mps 674 mmHg 65%
    14:00 +6°C° 0 mm 1 mps 674 mmHg 66%
    15:00 +6°C° 0 mm 1 mps 674 mmHg 66%
    16:00 +5°C° 0 mm 1 mps 674 mmHg 68%
    17:00 +3°C° 0 mm 1 mps 673 mmHg 71%
    18:00 +1°C° 0 mm 2 mps 673 mmHg 73%
    19:00 +1°C° 0 mm 2 mps 673 mmHg 72%
    20:00 -1°C° 0 mm 2 mps 673 mmHg 71%
    21:00 -1°C° 0 mm 2 mps 672 mmHg 70%
    22:00 -1°C° 0 mm 2 mps 672 mmHg 70%
    23:00 -1°C° 0 mm 2 mps 672 mmHg 70%

    31 January, Friday

    Time Temperature Precipitation Wind Pressure Humidity
    00:00 -1°C° 0 mm 2 mps 671 mmHg 70%
    01:00 -1°C° 0 mm 2 mps 671 mmHg 71%
    02:00 +1°C° 0 mm 1 mps 671 mmHg 73%
    03:00 +1°C° 0 mm 1 mps 671 mmHg 74%
    04:00 +1°C° 0.2 mm 1 mps 671 mmHg 76%
    05:00 +1°C° 0.2 mm 1 mps 671 mmHg 79%
    06:00 +1°C° 0.2 mm 1 mps 671 mmHg 81%
    07:00 +1°C° 0.7 mm 1 mps 671 mmHg 86%
    08:00 +1°C° 0.7 mm 1 mps 671 mmHg 91%
    09:00 +1°C° 0.7 mm 1 mps 671 mmHg 97%
    10:00 +1°C° 1 mm 1 mps 671 mmHg 97%
    11:00 +1°C° 1 mm 1 mps 671 mmHg 97%
    12:00 +1°C° 1 mm 2 mps 671 mmHg 97%
    13:00 -1°C° 0.8 mm 2 mps 670 mmHg 97%
    14:00 -1°C° 0.8 mm 3 mps 670 mmHg 97%
    15:00 -1°C° 0.8 mm 3 mps 670 mmHg 97%
    16:00 -2°C° 0.6 mm 3 mps 670 mmHg 97%
    17:00 -3°C° 0.6 mm 4 mps 671 mmHg 97%
    18:00 -3°C° 0.6 mm 4 mps 671 mmHg 97%
    19:00 -4°C° 0.5 mm 4 mps 671 mmHg 96%
    20:00 -4°C° 0.5 mm 4 mps 671 mmHg 96%
    21:00 -4°C° 0.5 mm 4 mps 671 mmHg 96%
    22:00 -5°C° 0.2 mm 4 mps 671 mmHg 95%
    23:00 -5°C° 0.2 mm 4 mps 671 mmHg 94%

    1 February, Saturday

    Time Temperature Precipitation Wind Pressure Humidity
    00:00 -5°C° 0.2 mm 4 mps 671 mmHg 94%
    01:00 -5°C° 0.2 mm 4 mps 671 mmHg 94%
    02:00 -5°C° 0.2 mm 4 mps 671 mmHg 94%
    03:00 -5°C° 0.2 mm 4 mps 671 mmHg 95%
    04:00 -5°C° 0.2 mm 4 mps 672 mmHg 94%
    05:00 -7°C° 0.2 mm 4 mps 672 mmHg 94%
    06:00 -6°C° 0.2 mm 3 mps 672 mmHg 94%
    07:00 -6°C° 0.2 mm 3 mps 672 mmHg 92%
    08:00 -5°C° 0.2 mm 3 mps 673 mmHg 89%
    09:00 -5°C° 0.2 mm 3 mps 673 mmHg 87%
    10:00 -4°C° 0 mm 3 mps 673 mmHg 84%
    11:00 -2°C° 0 mm 3 mps 672 mmHg 81%
    12:00 -2°C° 0 mm 3 mps 672 mmHg 78%
    13:00 -1°C° 0 mm 2 mps 672 mmHg 76%
    14:00 -1°C° 0 mm 2 mps 672 mmHg 73%
    15:00 -1°C° 0 mm 2 mps 673 mmHg 70%
    16:00 -2°C° 0 mm 2 mps 673 mmHg 74%
    17:00 -4°C° 0 mm 2 mps 673 mmHg 77%
    18:00 -5°C° 0 mm 2 mps 673 mmHg 81%
    19:00 -5°C° 0 mm 2 mps 674 mmHg 82%
    20:00 -6°C° 0 mm 2 mps 674 mmHg 83%
    21:00 -6°C° 0 mm 2 mps 675 mmHg 84%
    22:00 -6°C° 0.1 mm 2 mps 674 mmHg 84%
    23:00 -6°C° 0.1 mm 2 mps 674 mmHg 84%

    2 February, Sunday

    Time Temperature Precipitation Wind Pressure Humidity
    00:00 -6°C° 0.1 mm 2 mps 674 mmHg 84%
    01:00 -6°C° 0.2 mm 2 mps 674 mmHg 83%
    02:00 -6°C° 0.2 mm 2 mps 675 mmHg 83%
    03:00 -4°C° 0.2 mm 1 mps 675 mmHg 82%
    04:00 -6°C° 0.2 mm 2 mps 675 mmHg 84%
    05:00 -6°C° 0.2 mm 2 mps 675 mmHg 86%
    06:00 -6°C° 0.2 mm 2 mps 675 mmHg 88%
    07:00 -5°C° 0.4 mm 2 mps 676 mmHg 89%
    08:00 -4°C° 0.4 mm 2 mps 676 mmHg 90%
    09:00 -4°C° 0.4 mm 2 mps 677 mmHg 91%
    10:00 -3°C° 0.3 mm 2 mps 677 mmHg 91%
    11:00 -2°C° 0.3 mm 2 mps 677 mmHg 91%
    12:00 -1°C° 0.3 mm 3 mps 677 mmHg 91%
    13:00 -1°C° 0.2 mm 3 mps 677 mmHg 92%
    14:00 -1°C° 0.2 mm 2 mps 676 mmHg 92%
    15:00 -1°C° 0.2 mm 2 mps 676 mmHg 92%
    16:00 -2°C° 0 mm 2 mps 677 mmHg 92%
    17:00 -3°C° 0 mm 2 mps 677 mmHg 93%
    18:00 -1°C° 0 mm 1 mps 677 mmHg 93%
    19:00 -2°C° 0 mm 1 mps 677 mmHg 89%
    20:00 -2°C° 0 mm 1 mps 678 mmHg 85%
    21:00 -2°C° 0 mm 1 mps 678 mmHg 81%
    22:00 -3°C° 0 mm 1 mps 678 mmHg 79%
    23:00 -5°C° 0 mm 2 mps 678 mmHg 76%
    Show more